Dewpoint
57 58 58 57 58 57 58 58 59 59 59 59 59 58 58 60 59 59 60 59 59 59 59 58 59 60 61 63 63 63 63 63 63 63 63 63 64 64 64 64 64 64 64 64 64 64 65 64 64 64 64 64 64 64 63 63 63 62 62 62 62 63 61 60 59 59 61 61 62 63 63 64 64 63 64 63 62 62 59 60 61 61 60 61 60
57 57 57 57 57 57 57 58 58 59 59 59 59 58 59 59 59 58 59 59 58 59 58 58 59 59 60 60 62 62 62 62 62 63 62 62 62 63 63 63 63 62 63 63 63 63 63 64 64 63 64 64 64 63 63 63 63 63 62 62 63 63 63 61 60 60 60 59 61 62 63 63 64 63 64 63 61 60 59 57 58 59 60 60 59
57 57 57 57 57 57 57 57 58 58 58 58 59 58 58 58 60 58 58 58 58 57 57 57 58 57 56 57 57 57 58 59 59 60 61 61 61 61 61 62 62 62 62 62 63 63 62 62 62 63 64 64 64 64 64 63 63 62 63 63 63 63 63 63 62 60 60 60 60 60 61 62 63 63 63 64 62 60 57 58 57 57 57 58 58
57 57 57 57 57 56 56 57 56 57 57 57 58 57 58 58 60 58 57 57 57 57 56 56 56 55 55 55 55 55 56 57 57 56 56 56 55 56 58 59 60 61 62 61 61 62 62 61 62 62 62 62 63 63 63 63 63 62 62 63 62 63 63 63 63 62 61 60 59 60 60 62 63 63 64 63 62 60 58 58 57 56 56 55 56
57 57 57 57 57 56 56 57 56 55 56 56 56 56 57 57 59 57 56 56 56 56 57 55 54 54 54 54 54 55 55 55 54 54 54 53 53 53 53 53 55 57 59 61 62 62 61 61 62 62 62 62 62 62 63 63 63 63 63 63 63 63 63 63 62 62 61 60 60 59 61 62 63 62 63 62 61 60 58 57 56 56 57 55 53
56 56 56 57 56 56 56 57 57 56 56 55 55 56 57 57 58 57 56 55 55 55 55 55 55 54 53 53 53 54 54 54 53 52 51 51 51 51 52 52 53 53 54 56 58 59 61 62 62 62 62 62 62 63 63 63 63 63 63 63 63 63 63 63 63 62 61 61 61 59 60 61 61 61 62 62 60 58 57 56 56 56 54 54 53
56 55 55 56 56 56 56 57 57 57 57 56 56 56 56 57 57 56 56 55 55 54 54 55 56 54 53 53 53 53 53 52 51 51 50 49 50 50 51 51 52 52 53 53 54 56 57 59 61 63 62 62 62 62 62 63 63 63 63 63 63 63 62 63 63 62 61 61 60 60 60 61 62 61 60 62 61 59 56 55 53 53 54 54 53
52 55 55 56 56 56 57 56 56 57 57 56 56 56 56 56 56 56 56 54 54 54 54 54 54 53 53 53 53 53 52 51 49 49 49 49 50 50 50 51 51 52 52 52 53 53 54 55 56 59 61 62 62 62 63 62 63 63 63 63 63 63 62 62 62 62 61 60 60 59 60 60 59 58 58 60 59 58 57 54 52 52 53 54 55
54 55 55 55 55 56 56 56 56 57 56 55 55 55 55 56 55 55 55 55 55 54 54 53 54 53 53 52 52 54 51 51 51 50 48 48 49 49 50 50 51 51 51 52 52 53 53 54 54 55 57 60 59 59 60 61 61 62 63 63 63 62 62 62 62 62 61 60 59 59 59 59 59 57 56 58 59 58 58 55 53 53 54 53 54
54 55 55 55 55 55 56 56 56 55 55 55 54 54 55 55 55 54 54 54 54 54 54 53 53 53 52 52 51 51 52 51 54 52 51 49 48 48 49 49 50 51 52 52 52 52 53 53 54 56 55 56 56 54 53 54 56 60 61 62 62 62 62 61 61 62 61 60 59 58 58 58 58 57 57 58 60 59 58 55 52 51 51 50 51
54 54 54 54 54 54 55 55 55 54 54 54 54 54 54 54 54 54 54 53 53 54 53 53 53 52 52 51 51 51 50 50 50 42 41 46 49 48 47 48 49 49 51 52 52 53 53 53 55 56 56 56 55 53 52 52 52 52 53 55 59 62 61 61 62 62 61 60 60 59 59 58 59 59 58 58 57 58 58 56 53 50 49 48 48
54 54 54 54 54 54 54 54 54 53 54 54 53 54 54 54 54 54 54 53 53 53 53 53 53 52 51 50 50 50 50 51 46 41 41 41 46 49 48 47 48 49 50 51 52 53 54 54 55 56 56 57 57 57 56 54 51 50 51 51 50 50 53 60 61 61 61 61 60 59 59 59 59 59 58 56 56 58 57 55 52 50 49 49 49
53 53 53 53 53 53 53 53 53 53 53 53 53 53 53 53 53 53 53 54 53 52 53 52 52 51 51 50 50 50 50 47 43 42 42 41 41 46 46 46 47 49 50 52 53 54 54 54 55 56 56 58 58 58 58 58 55 53 52 51 51 50 47 46 50 60 61 61 60 60 59 59 59 59 59 57 56 57 57 55 52 50 50 50 49
53 53 53 53 53 53 52 52 52 52 53 53 53 53 53 53 53 53 53 53 53 53 52 52 51 51 51 50 50 50 49 48 44 43 42 41 40 41 45 45 47 48 50 52 53 53 54 54 54 54 55 56 57 58 59 59 59 58 59 59 58 58 54 49 48 48 53 60 61 60 60 60 59 60 60 57 56 56 55 53 51 50 49 50 50
53 53 53 53 52 52 51 51 52 52 52 52 52 52 52 52 52 52 52 52 52 52 52 51 51 51 51 50 50 49 49 47 43 41 41 41 40 41 44 45 47 49 50 51 52 53 53 53 54 54 55 55 56 56 58 58 59 59 59 59 59 60 60 60 58 58 57 57 59 61 61 61 61 61 60 58 58 58 57 55 52 50 49 47 47
53 53 52 52 52 51 51 51 51 51 51 52 52 52 52 52 51 51 52 51 52 51 51 51 51 51 51 49 49 50 50 44 41 40 40 40 40 45 46 46 47 47 49 50 51 52 52 53 53 53 53 54 54 49 52 56 57 57 58 59 59 60 60 59 55 55 60 60 60 60 61 62 57 61 60 59 58 57 54 51 49 46 46 46 44
52 52 52 51 51 50 50 50 51 51 51 51 51 51 51 50 51 51 51 51 51 50 51 51 51 51 50 49 49 49 49 45 40 39 39 39 41 45 45 46 47 47 48 49 51 51 51 51 52 53 54 54 52 46 46 49 53 54 56 57 58 59 60 60 53 49 49 49 49 49 49 47 47 49 50 50 55 54 52 50 49 49 47 44 43
52 51 51 51 50 49 50 50 50 51 50 50 50 51 51 51 50 50 50 50 50 50 50 50 50 50 49 49 48 48 48 47 41 38 38 38 45 46 46 46 45 46 47 49 49 50 50 53 54 53 53 52 47 44 43 46 50 53 54 55 56 58 59 59 58 55 47 46 45 45 46 46 47 46 47 48 47 50 53 51 49 49 46 44 42
50 50 50 50 49 49 50 50 50 50 49 49 50 49 49 49 49 49 49 49 49 49 50 49 48 48 48 48 51 50 48 47 42 40 40 40 44 45 45 45 44 45 47 48 49 50 50 51 51 51 51 49 42 41 41 45 49 52 53 54 55 56 58 59 57 56 54 54 55 55 53 51 54 54 54 47 47 52 54 53 50 50 48 47 45
50 49 50 49 49 49 51 51 51 50 49 49 49 50 49 48 47 47 47 47 47 47 47 48 47 47 47 48 48 50 49 48 46 41 41 41 42 47 45 45 45 45 46 47 48 49 49 50 51 45 41 41 40 40 40 41 46 50 52 53 54 55 53 54 54 54 55 55 56 56 56 55 54 53 53 51 52 54 53 53 50 51 49 46 44
49 48 48 48 48 49 49 50 50 50 50 49 50 50 48 47 46 45 46 46 46 45 45 46 46 46 46 46 46 46 47 47 47 42 41 41 40 43 45 44 45 45 45 46 47 48 48 49 50 46 42 41 40 40 40 41 43 49 51 52 53 52 50 52 53 54 53 53 53 52 52 52 52 52 52 52 53 53 52 51 52 52 49 46 45
48 48 47 47 48 49 49 48 50 50 49 50 49 49 48 46 46 45 45 45 44 44 44 45 45 45 45 45 45 46 47 49 47 43 41 40 40 40 43 45 45 45 44 45 47 47 48 49 48 46 41 39 39 40 40 40 42 51 50 43 42 42 51 52 52 51 51 51 51 50 50 50 50 50 51 51 52 52 51 50 49 49 48 47 46
48 47 47 48 48 48 48 48 48 48 48 49 47 47 46 45 45 45 45 44 45 44 44 43 43 44 44 44 44 45 45 46 46 47 43 41 40 39 40 42 40 43 44 45 46 47 48 47 46 45 39 39 39 39 40 41 44 45 39 40 41 43 48 50 49 50 49 49 49 48 48 49 48 49 49 49 50 50 50 49 49 49 48 48 48
47 47 47 47 48 48 48 48 47 47 47 47 46 46 45 45 45 45 46 46 45 45 44 42 42 42 44 44 44 44 44 44 44 43 44 42 40 40 39 38 39 43 44 45 46 47 47 46 44 38 38 39 38 37 38 40 44 39 40 41 43 45 49 48 48 48 47 47 47 46 45 46 47 47 47 47 48 48 47 47 47 47 46 46 46
47 46 46 46 47 47 48 47 47 46 46 46 45 45 44 44 44 44 45 45 45 44 45 42 43 44 43 44 45 44 43 43 43 42 40 41 40 39 38 38 38 38 41 44 45 47 44 39 38 39 40 40 40 40 40 40 39 40 42 44 48 48 48 48 47 47 46 45 45 44 44 45 46 46 46 46 45 45 45 45 45 45 46 45 45
45 46 45 45 45 45 46 46 46 46 46 46 45 45 44 45 45 45 45 45 45 44 45 44 44 43 43 44 44 44 43 43 43 43 44 45 43 40 39 39 41 40 41 43 42 41 38 38 39 40 41 43 46 45 44 44 40 42 43 46 47 48 47 47 46 46 45 45 45 44 45 45 45 45 46 46 45 44 44 44 44 44 44 44 43
45 45 45 44 45 45 45 45 45 45 45 45 45 45 45 45 45 45 45 45 44 44 43 43 44 44 44 44 44 44 43 43 43 43 43 42 42 44 44 42 41 40 42 43 43 43 42 44 43 41 40 39 41 41 42 42 46 47 47 46 47 47 47 46 46 45 45 45 44 44 45 45 45 45 44 44 44 44 44 44 44 43 43 43 42
44 44 44 44 44 44 44 44 45 44 44 44 44 44 45 45 44 45 45 45 43 43 43 43 43 43 44 45 44 43 43 42 42 42 44 43 44 44 42 45 44 44 44 43 42 45 44 42 43 47 46 45 45 46 46 47 48 47 47 47 47 47 47 46 46 45 45 45 45 45 45 45 44 44 44 43 43 43 44 43 43 43 43 43 41
44 44 43 43 44 44 44 45 44 44 44 44 44 44 44 44 44 44 45 45 44 44 44 43 44 44 43 44 44 43 43 43 43 41 44 41 43 44 44 44 44 44 45 41 45 44 43 45 46 46 46 45 45 45 46 47 47 47 47 47 47 46 45 44 43 43 43 44 43 44 44 45 44 44 43 43 43 43 44 44 43 43 43 42 41
43 43 43 43 43 44 44 44 44 44 44 44 44 44 41 42 43 44 43 44 41 40 40 43 44 45 44 45 45 44 43 45 42 41 40 39 39 39 40 41 40 43 42 39 41 42 43 44 45 46 46 46 45 45 46 46 46 46 47 44 46 46 45 45 43 43 42 44 42 43 44 43 43 44 43 43 43 43 43 41 43 43 42 41 39
43 43 43 43 42 43 43 43 44 44 44 44 44 43 44 43 40 40 40 42 41 40 40 40 40 41 44 44 43 41 40 40 40 41 40 40 39 39 39 39 39 39 39 40 40 41 41 43 43 44 45 47 46 46 46 46 45 44 45 46 47 45 43 44 42 41 41 42 43 43 44 44 43 43 43 43 43 43 43 43 43 43 41 38 33
43 43 43 43 42 42 43 44 44 44 43 43 43 43 42 42 43 40 39 39 39 40 40 40 40 39 40 42 45 44 40 39 39 40 40 40 39 39 39 39 39 39 39 37 37 37 40 41 41 44 45 46 47 46 46 46 45 44 45 45 46 46 45 44 44 43 42 40 41 39 43 43 41 40 42 41 39 40 40 41 41 40 36 33 31
43 43 43 43 43 42 43 43 43 43 43 43 43 42 42 41 41 41 41 38 38 38 38 39 39 39 39 40 40 41 42 41 39 39 39 40 39 39 39 39 38 38 37 37 37 36 37 40 41 42 43 46 47 46 45 45 44 43 43 45 44 45 45 44 43 44 41 42 40 40 40 39 39 40 36 39 40 40 38 36 35 33 32 29 31
43 43 43 43 43 43 43 43 43 43 43 43 42 42 42 42 41 41 41 41 41 39 38 38 38 39 39 39 40 40 40 40 40 39 39 39 39 39 39 39 38 38 37 39 37 38 36 37 39 40 41 43 46 46 45 45 44 41 42 43 44 44 45 44 44 43 43 40 41 39 40 40 39 39 39 38 37 37 35 35 35 33 30 28 29
43 40 38 41 44 43 43 43 43 43 43 43 42 41 42 41 41 41 40 40 40 40 41 41 39 38 40 40 39 39 39 39 39 39 39 39 39 38 38 41 40 39 39 39 37 37 36 36 36 38 40 41 43 44 44 44 43 41 40 41 42 42 42 42 43 43 43 42 44 43 40 40 38 37 37 38 38 37 34 32 32 32 31 28 27
43 42 42 43 44 44 44 43 43 43 43 43 43 42 41 41 40 40 40 40 40 40 40 41 41 37 38 38 38 38 38 38 38 38 38 38 39 39 41 41 41 41 40 40 38 38 37 36 36 37 39 40 42 42 42 42 41 40 40 40 40 41 41 41 41 41 42 42 43 42 40 43 41 37 38 38 39 37 35 34 31 31 31 29 28
43 42 42 43 44 44 44 44 44 43 40 41 42 42 42 42 41 40 41 40 40 40 40 41 40 40 38 39 41 38 38 38 38 38 38 38 38 40 43 42 42 41 40 40 39 39 39 39 37 37 38 39 40 41 41 42 41 40 39 40 40 40 40 40 40 39 40 41 41 41 40 41 41 40 37 35 35 37 37 35 33 31 30 29 28
43 42 42 42 43 43 43 43 43 39 40 41 42 42 42 41 41 40 40 40 40 40 40 41 40 41 40 40 44 40 38 37 37 37 37 37 36 40 42 43 42 42 41 40 40 40 39 39 40 40 39 40 39 40 40 42 41 41 39 39 39 39 38 38 36 40 39 39 39 39 38 40 41 40 35 37 35 35 36 36 35 33 32 30 29
43 39 37 37 38 42 42 42 40 41 41 41 41 41 40 40 40 40 40 40 40 40 40 41 40 40 40 41 41 41 38 38 39 39 38 38 39 40 41 42 42 41 42 41 40 38 39 38 39 40 40 40 41 41 41 41 42 41 41 39 39 39 39 38 38 38 37 37 37 38 37 38 38 38 36 35 35 37 37 36 36 35 33 31 31
43 42 38 35 38 39 40 39 40 40 39 40 40 40 39 39 39 39 39 40 40 40 40 40 40 40 41 40 40 39 39 40 39 39 39 38 38 39 40 40 41 41 41 40 39 39 38 38 38 39 40 40 41 41 41 41 42 42 40 39 38 37 38 38 37 36 36 37 36 35 36 36 36 36 35 35 35 35 36 35 35 35 34 33 32
43 42 38 36 37 39 38 38 38 39 39 39 39 39 39 38 38 38 39 39 39 39 40 40 40 40 41 38 38 38 40 40 39 39 39 39 39 39 39 39 40 40 40 39 39 38 38 38 38 38 39 39 40 40 40 40 40 40 40 39 38 36 37 38 38 37 36 35 35 34 34 35 35 34 34 34 35 35 35 35 34 34 34 33 34
43 42 40 38 37 39 39 37 38 37 38 38 38 38 38 38 38 38 38 38 38 38 39 39 40 40 40 38 38 37 39 40 40 39 40 39 39 39 39 39 40 40 40 40 39 38 37 36 37 37 37 38 38 39 39 40 40 40 40 39 38 38 36 36 37 36 36 35 35 35 34 34 33 33 34 35 34 34 34 34 34 34 34 34 33
42 41 41 39 38 38 38 38 38 38 37 37 37 35 36 37 38 38 37 38 38 38 38 38 39 39 39 37 37 36 38 39 37 39 39 39 39 39 39 39 39 40 40 40 40 39 37 36 36 36 35 36 37 37 38 39 39 40 40 41 40 40 38 36 36 35 35 35 34 34 34 34 33 33 34 33 34 33 33 34 34 34 34 34 33
42 40 40 38 38 38 38 38 38 37 37 36 36 35 35 36 37 37 37 37 37 37 37 38 38 38 39 37 36 36 38 39 39 39 39 38 39 39 39 39 39 39 39 39 39 39 38 37 36 36 37 36 37 38 38 38 39 39 39 39 37 37 38 37 36 36 35 34 34 34 34 34 33 33 33 33 34 33 33 33 33 33 33 33 33
42 41 40 39 38 38 38 38 37 37 36 36 36 36 35 36 36 36 36 36 36 36 37 37 37 38 37 37 37 38 38 38 38 38 38 39 39 39 39 39 39 39 39 39 39 39 39 38 38 38 38 38 37 38 38 38 39 39 39 38 37 36 37 38 38 38 37 36 34 34 33 33 34 34 33 33 33 33 33 33 33 32 33 33 33
42 41 40 39 38 37 37 38 36 37 37 36 36 36 35 35 36 36 36 35 36 36 36 36 37 37 37 37 37 37 38 38 38 38 38 38 38 39 39 39 39 39 39 39 39 38 38 38 38 38 38 38 38 38 38 38 39 39 40 40 39 38 38 39 40 39 38 38 36 35 34 34 34 34 33 34 33 33 33 33 33 33 33 33 33
43 41 40 39 38 37 37 37 37 37 37 36 36 36 35 35 36 36 35 35 35 35 35 36 36 36 36 37 37 37 37 37 38 38 38 38 38 38 39 39 38 39 39 39 39 38 38 37 37 38 38 38 38 38 37 37 38 38 39 39 39 39 39 39 39 39 39 39 38 35 34 34 33 33 33 33 33 33 33 33 33 33 33 33 32
42 41 40 39 39 38 37 37 37 35 36 36 36 35 35 35 35 35 36 36 35 35 35 35 35 36 35 36 36 36 36 37 37 37 37 38 38 38 38 39 38 38 38 39 39 38 37 37 38 38 37 37 37 37 37 37 37 37 38 38 38 38 38 36 39 39 39 39 38 38 37 35 34 34 33 34 33 33 33 33 33 32 33 32 32
41 41 40 39 38 38 38 37 36 36 36 37 36 35 35 35 35 35 35 36 36 36 36 36 36 35 35 35 35 35 36 35 36 37 37 37 38 38 38 38 37 38 38 37 38 38 37 37 37 37 37 37 37 36 36 36 36 36 37 37 37 36 35 35 36 37 37 39 38 38 37 36 35 34 33 33 33 33 33 33 33 32 32 32 32
41 40 40 39 38 38 38 38 37 37 37 37 36 36 35 35 35 35 35 35 36 36 36 36 36 36 36 35 34 35 35 35 36 36 36 37 37 37 37 37 38 37 37 37 37 37 37 37 37 37 37 37 36 36 36 35 35 35 36 36 35 35 35 35 35 35 36 37 37 37 37 36 35 34 34 34 34 33 33 33 33 32 32 32 32
40 40 40 39 39 38 38 38 38 37 37 37 37 36 36 36 35 35 35 35 35 36 35 36 36 36 36 36 35 35 35 35 36 36 36 36 37 37 37 37 36 37 37 37 37 37 37 37 36 36 36 35 36 36 36 35 35 35 34 34 34 35 35 35 36 34 34 35 37 37 36 36 35 34 34 33 34 33 33 32 33 33 32 32 32